TimeCDT,TemperatureF,Dew PointF,Humidity,Sea Level PressureIn,VisibilityMPH,Wind Direction,Wind SpeedMPH,Gust SpeedMPH,PrecipitationIn,Events,Conditions,WindDirDegrees,DateUTC
12:53 AM,73.9,66.9,79,29.93,10.0,SE,8.1,-,N/A,,Clear,130,2012-10-24 05:53:00
1:53 AM,72.0,66.9,84,29.92,10.0,SE,6.9,-,N/A,,Clear,130,2012-10-24 06:53:00
2:53 AM,73.0,66.9,81,29.91,10.0,ESE,8.1,-,N/A,,Clear,120,2012-10-24 07:53:00
3:53 AM,73.0,66.0,79,29.91,10.0,ESE,8.1,-,N/A,,Partly Cloudy,110,2012-10-24 08:53:00
4:53 AM,72.0,66.0,81,29.90,10.0,ESE,6.9,-,N/A,,Clear,120,2012-10-24 09:53:00
5:53 AM,71.1,66.0,84,29.91,10.0,ESE,6.9,-,N/A,,Mostly Cloudy,120,2012-10-24 10:53:00
6:53 AM,71.1,66.0,84,29.91,10.0,ESE,8.1,-,N/A,,Clear,120,2012-10-24 11:53:00
7:53 AM,71.1,66.0,84,29.92,10.0,ESE,6.9,-,N/A,,Clear,120,2012-10-24 12:53:00
8:53 AM,75.0,66.9,76,29.93,10.0,SE,10.4,-,N/A,,Clear,130,2012-10-24 13:53:00
9:53 AM,81.0,68.0,65,29.94,10.0,SE,15.0,-,N/A,,Clear,140,2012-10-24 14:53:00
10:53 AM,84.0,66.9,56,29.94,10.0,SE,12.7,23.0,N/A,,Clear,140,2012-10-24 15:53:00
11:53 AM,87.1,64.9,48,29.94,10.0,SE,11.5,20.7,N/A,,Clear,130,2012-10-24 16:53:00
12:53 PM,88.0,62.1,42,29.91,10.0,ESE,11.5,-,N/A,,Clear,120,2012-10-24 17:53:00
1:53 PM,90.0,64.0,42,29.88,10.0,SE,12.7,19.6,N/A,,Clear,130,2012-10-24 18:53:00
2:53 PM,90.0,64.0,42,29.85,10.0,SSE,12.7,-,N/A,,Partly Cloudy,150,2012-10-24 19:53:00
3:53 PM,91.9,66.0,42,29.83,10.0,SE,16.1,23.0,N/A,,Mostly Cloudy,130,2012-10-24 20:53:00
4:53 PM,90.0,64.9,43,29.83,10.0,SE,15.0,-,N/A,,Partly Cloudy,140,2012-10-24 21:53:00
5:53 PM,88.0,64.0,45,29.82,10.0,SSE,16.1,-,N/A,,Clear,150,2012-10-24 22:53:00
6:53 PM,84.9,60.1,43,29.84,10.0,SE,15.0,-,N/A,,Clear,140,2012-10-24 23:53:00
7:53 PM,82.0,59.0,45,29.86,10.0,SE,13.8,-,N/A,,Clear,140,2012-10-25 00:53:00
8:53 PM,80.1,66.0,62,29.87,10.0,SE,9.2,-,N/A,,Clear,140,2012-10-25 01:53:00
9:53 PM,78.1,66.9,68,29.88,10.0,SE,10.4,-,N/A,,Clear,140,2012-10-25 02:53:00
10:53 PM,75.9,66.9,74,29.88,10.0,SE,9.2,-,N/A,,Clear,130,2012-10-25 03:53:00
11:53 PM,75.0,66.9,76,29.87,10.0,SE,9.2,-,N/A,,Clear,130,2012-10-25 04:53:00